Location: Clayton (historical)
(34.0300°N, 118.0259°W)
Time: 07:51:28
(UTC+00:00)

Cosmos 1980 Rocket - Pass Details

Date: 29 October 2020
Orbit: 831 x 848 km, 71.0° (Epoch: 29 November)

Event Time Altitude Azimuth Distance (km) Brightness Sun altitude
Rises 12:51:45 0° 338° (NNW) 3,378 5.1 -16.6°
Reaches altitude 10° 12:54:11 10° 338° (NNW) 2,442 4.3 -16.1°
Maximum altitude 12:59:47 85° 252° (WSW) 839 2.1 -15.0°
Drops below altitude 10° 13:05:23 10° 163° (SSE) 2,435 4.9 -13.8°
Sets 13:07:48 0° 162° (SSE) 3,368 5.7 -13.3°
